This is the latest recevied weather packets stored in our database for station/object K7NDG. If no packets are shown the sender has not sent any weather packets the latest 10 day(s).
| Time | Temp. | Humidity | Pressure | Rain* | Wind** | Luminosity | Snow |
|---|---|---|---|---|---|---|---|
| 1777653379 | 12.78° C | 84% | 1018.2 hPa | 0 mm | - | 177 W/m² | - |
| 1777653076 | 12.22° C | 84% | 1018.3 hPa | 0 mm | - | 172 W/m² | - |
| 1777652772 | 12.22° C | 85% | 1018.1 hPa | 0 mm | - | 133 W/m² | - |
| 1777652469 | 12.22° C | 85% | 1018.5 hPa | 0 mm | - | 99 W/m² | - |
| 1777652167 | 12.22° C | 85% | 1018.4 hPa | 0 mm | - | 110 W/m² | - |
| 1777651863 | 12.22° C | 85% | 1018.7 hPa | 0 mm | - | 81 W/m² | - |
| 1777651560 | 12.22° C | 85% | 1018.4 hPa | 0 mm | - | 89 W/m² | - |
| 1777651256 | 12.22° C | 85% | 1018.4 hPa | 0 mm | - | 89 W/m² | - |
| 1777650953 | 11.67° C | 86% | 1018.4 hPa | 0 mm | - | 84 W/m² | - |
| 1777650650 | 11.67° C | 86% | 1018.7 hPa | 0 mm | - | 86 W/m² | - |
| 1777650348 | 11.67° C | 86% | 1018.4 hPa | 0 mm | - | 97 W/m² | - |
| 1777650045 | 11.67° C | 86% | 1018.1 hPa | 0 mm | - | 87 W/m² | - |
| 1777649742 | 11.67° C | 86% | 1018.3 hPa | 0 mm | - | 84 W/m² | - |
| 1777649438 | 11.67° C | 86% | 1018.5 hPa | 0 mm | - | 73 W/m² | - |
| 1777649135 | 11.67° C | 86% | 1018.5 hPa | 0 mm | - | 61 W/m² | - |
| 1777648833 | 11.67° C | 87% | 1018.5 hPa | 0 mm | - | 50 W/m² | - |
| 1777648529 | 11.67° C | 86% | 1018.1 hPa | 0 mm | - | 50 W/m² | - |
| 1777648226 | 11.67° C | 87% | 1018.3 hPa | 0 mm | - | 51 W/m² | - |
| 1777647921 | 11.67° C | 87% | 1018.3 hPa | 0 mm | - | 55 W/m² | - |
| 1777647619 | 11.67° C | 87% | 1018.5 hPa | 0 mm | - | 61 W/m² | - |
| 1777647314 | 11.67° C | 87% | 1018.2 hPa | 0 mm | - | 61 W/m² | - |
| 1777647013 | 11.11° C | 87% | 1018.2 hPa | 0 mm | - | 56 W/m² | - |
| 1777646709 | 11.11° C | 88% | 1017.9 hPa | 0 mm | - | 56 W/m² | - |
| 1777646404 | 11.11° C | 88% | 1018.2 hPa | 0 mm | - | 51 W/m² | - |
| 1777646101 | 11.11° C | 88% | 1017.9 hPa | 0 mm | - | 53 W/m² | - |
* Rain latest hour (hover to see other rain measurements)
** Current wind speed in m/s (hover to see current wind gust speed)